Вернуться в каталог

DELTA 1 R/B(1)

АктивенLEO
NORAD 10062·ROCKET BODY·🇺🇸 United States

Запущен Jun 16, 1977 с Cape Canaveral Space Force Station

Loading…

Ближайшие Пролёты (ближайшие 24 часа)

TLE

СвежийSource: Space-Track

Эпоха: Sep 14, 2026, 12:41 UTC

1 10062U 77048B   26257.52847896  .00000192  00000-0  37633-4 0  9994
2 10062  28.4180 357.7955 0726398  21.3689 341.5649 13.39083493399005

Отслеживайте DELTA 1 R/B(1) в реальном времени с AllMySat

Download on the App Store